Погода в Казачинском

Россия / Красноярский край     57°41′44″N   93°16′31″E
темп.,
°C
ветер,
м/с
пор.,
м/с
влажн.,
%
обл.,
%
осадки,
мм/ч
давл.,
гПа
погр.,
м
22 октября, пт
пт2201:00+3ю237663 0.0 101438
04:00+2ю227594 0.0 101426
07:00+2ю2273100 0.0 101430
10:00+5ююв2764100 0.0 1014178
13:00+10ю264998 0.0 1013301
16:00+9ююв265996 0.0 1013147
19:00+7ююз21070100 0.0 1014190
22:00+9зюз51170100 0.2 10171017
23 октября, сб
сб2301:00+6зюз41167100 0.3 10191203
04:00+5зюз51162100 0.1 10201323
07:00+3зюз5116611 0.1 10221134
10:00+3юз5116325 0.0 10221176
13:00+6юз5135092 0.0 10201775
16:00+6юз5134899 0.0 10181761
19:00+5юз51356100 0.0 10171423
22:00+4ююз61465100 0.0 10151228
24 октября, вс
вс2401:00+3ююз61692100 0.2 10121310
04:00+3юз61596100 1.5 10111220
07:00+3юз61596100 2.0 10101085
10:00+5юз61594100 0.1 10101149
13:00+5юз71695100 0.4 10091350
16:00+5зюз61492100 0.9 10101236
19:00+5зюз61388100 1.6 10121131
22:00+4з5139096 0.9 10141152
25 октября, пн
пн2501:00+5з5117690 1.1 10161219
04:00+4зюз5108184 0.1 1018892
07:00+4зюз397296 0.1 1019712
10:00+4ююз398497 0.0 1019499
13:00+6ююз3880100 0.0 1016801
16:00+6ю51388100 0.9 10121195
19:00+8юз71675100 1.9 10091281
22:00+9зюз71773100 0.1 10091768
26 октября, вт
вт2601:00+7з6146697 0.3 10101387
04:00+6з6127074 0.2 10131335
07:00+3з4107696 0.3 1017941
10:00+4з487346 0.0 1019891
13:00+4з357099 0.0 1020929
16:00+4юз1171100 0.0 101930
19:00+2юв2483100 0.0 101779
22:00+3вюв2782100 0.0 1014176